#timestamp,LO_Frequency,Hit,StdDev 
1674781215.4,286047001.0,N
1674781235.3,286046998.3,N
1674781255.1,286046998.5,N
1674781275.8,286047000.7,N
1674781295.7,286047001.0,N
1674781315.5,286046998.1,N
1674781335.4,286046998.3,N
1674781355.2,286046998.9,N
1674781405.1,286047000.8,E
1674781415.9,286047000.9,N
1674781435.7,286046999.3,P
1674781455.6,286046997.5,P
1674781475.4,286046999.6,N
1674781495.2,286046997.7,N
1674781515.1,286046999.5,N
1674781516.0,286046999.5,N
1674781535.8,286046999.2,N
1674781555.6,286046995.4,Y
1674781575.5,286046997.0,P
1674781595.3,286046996.6,P
1674781615.2,286047001.1,N
1674781635.9,286047002.1,N
1674781655.7,286047000.2,N
1674781675.6,286046999.9,N
1674781695.4,286047000.1,N
1674781715.2,286047002.0,N
1674781735.1,286046999.8,N
1674781736.0,286046999.8,N
1674781755.8,286047002.5,N
1674781775.7,286046999.8,N
1674781795.5,286047002.4,N
1674781815.3,286047002.0,N
1674781835.2,286046999.8,N
1674781855.0,286047000.5,N
1674781855.9,286047000.5,N
1674781875.7,286046998.2,N
1674781895.6,286046997.5,N
1674781915.4,286046995.7,N
1674781935.3,286046996.8,N
1674781955.1,286046998.6,N
1674781956.0,286046998.6,N
1674781975.8,286047002.3,N
1674781995.7,286047002.2,N
1674782015.5,286047000.6,N
1674782035.3,286046998.1,N
1674782055.2,286046998.7,N
1674782075.0,286046999.2,N
1674782075.9,286046999.2,N
1674782095.8,286046998.1,N
1674782115.6,286047000.4,N
1674782135.4,286047000.3,N
1674782155.3,286047000.0,N
1674782175.1,286047000.1,N
1674782195.9,286047000.0,N
1674782215.7,286047000.5,N
1674782235.5,286046996.6,N
1674782255.4,286046998.7,N
1674782275.2,286046999.0,N
1674782295.0,286046998.6,N
1674782295.9,286046998.6,N
1674782315.8,286047000.6,N
1674782335.6,286046998.2,N
1674782355.5,286046996.9,N
1674782375.3,286046999.0,N
1674782395.1,286046999.6,N
1674782415.9,286046995.1,Y
1674782435.7,286046999.3,P
1674782455.1,286047000.3,N
1674782456.0,286047000.3,N
1674782475.8,286046998.1,Y
1674782495.7,286047002.3,P
1674782515.5,286047001.9,N
1674782535.3,286047001.4,N
1674782555.2,286047001.9,N
1674782575.0,286047001.5,N
1674782575.9,286047001.5,N
1674782595.7,286047003.4,Y
1674782615.6,286047002.7,P
1674782635.4,286047002.2,P
1674782655.3,286047002.4,P
1674782675.1,286046999.9,N
1674782676.0,286046999.9,N
1674782695.8,286046999.9,N
1674782715.7,286047000.5,N
1674782735.5,286046999.1,N
1674782755.3,286046997.4,N
1674782775.2,286046998.7,N
1674782795.0,286046998.8,N
1674782795.9,286046998.8,N
1674782815.8,286046999.0,N
1674782835.6,286046999.2,N
1674782855.4,286046997.8,N
1674782875.3,286046997.5,N
1674782895.1,286046995.5,N
1674782915.8,286046996.8,N
1674782935.7,286047001.1,N
1674782955.5,286047002.6,N
1674782975.4,286047002.7,N
1674782995.2,286047001.5,N
1674783015.0,286046999.8,N
1674783015.9,286046999.8,N
1674783035.8,286046999.7,N
1674783055.6,286047002.6,N
1674783075.5,286047002.2,N
1674783095.3,286047004.2,N
1674783115.1,286047004.1,N
1674783135.9,286047003.7,N
1674783155.7,286047003.9,N
1674783175.6,286047001.0,N
1674783195.4,286047001.1,N
1674783215.2,286047000.3,N
1674783235.1,286047002.6,N
1674783236.0,286047002.6,N
1674783255.8,286047001.2,N
1674783275.6,286047000.3,N
1674783295.5,286046999.8,N
1674783315.3,286047000.5,N
1674783335.2,286046998.4,N
1674783355.9,286046998.5,N
1674783375.7,286046998.5,N
1674783395.6,286047001.2,N
1674783415.4,286046999.7,N
1674783435.2,286047000.4,N
1674783455.1,286047000.3,N
1674783456.0,286047000.3,N
1674783475.8,286046998.1,N
1674783495.7,286047000.7,N
1674783515.5,286047000.0,N
1674783535.3,286047002.7,N
1674783555.2,286047001.9,N
1674783575.0,286047001.9,N
1674783575.9,286047001.9,N
1674783595.8,286047002.3,N
1674783615.6,286047000.7,N
1674783635.4,286047000.0,N
1674783655.3,286046998.8,N
1674783675.1,286047000.5,N
1674783695.8,286046999.9,N
1674783715.7,286046998.6,N
1674783735.5,286047001.0,N
1674783755.4,286047000.8,N
1674783775.2,286046998.6,N
1674783795.0,286047002.7,N
1674783795.9,286047002.7,N
1674783815.8,286047000.7,N
1674783835.6,286046998.4,N
1674783855.5,286047001.1,N
1674783875.3,286047001.1,N
1674783895.1,286047002.5,N
1674783915.9,286047002.7,N
1674783935.7,286047002.6,N
1674783955.5,286047002.7,N
1674783975.4,286047002.3,N
1674783995.2,286047002.7,N
1674784015.1,286047001.7,N
1674784016.0,286047001.7,N
1674784035.8,286047002.0,N
1674784055.6,286047001.8,N
1674784075.5,286047000.1,N
1674784095.3,286047002.8,N
1674784115.1,286046999.7,N
1674784135.9,286046998.2,N
1674784155.7,286046996.1,N
1674784175.6,286046998.0,N
1674784195.4,286046994.9,N
1674784215.2,286046995.4,N
1674784235.1,286046996.8,N
1674784236.0,286046996.8,N
1674784255.8,286046998.2,N
1674784275.7,286046998.9,N
1674784295.5,286046999.4,N
1674784315.3,286046999.4,N
1674784335.2,286047001.0,N
1674784355.0,286047002.8,N
1674784355.9,286047002.8,N
1674784375.8,286047001.6,N
1674784395.6,286047001.2,N
1674784415.4,286046998.2,N
1674784435.3,286046997.1,N
1674784455.1,286046998.1,N
1674784475.8,286046999.4,N
1674784495.7,286046999.4,N
1674784515.5,286046998.4,N
1674784535.4,286047001.0,N
1674784555.2,286046999.1,N
1674784575.0,286046998.7,N
1674784575.9,286046998.7,N
1674784595.8,286046997.8,N
1674784615.6,286046998.0,N
1674784635.5,286046997.7,N
1674784655.3,286046997.9,N
1674784675.1,286046999.5,N
1674784695.9,286046997.2,N
1674784715.7,286046997.8,N
1674784735.5,286046996.7,N
1674784755.4,286046999.4,N
1674784775.2,286046998.1,N
1674784795.1,286047000.1,N
1674784796.0,286047000.1,N
